Back to catalog

COSMOS 2214

AliveMilitaryPO
NORAD 22185·PAYLOAD·🇷🇺 Russia

Launched Oct 20, 1992 from Plesetsk Cosmodrome

Loading…

Next Passes (next 24 hours)

TLE

FreshSource: Space-Track

Epoch: Sep 14, 2026, 13:04 UTC

1 22185U 92068D   26257.54492839  .00000023  00000-0  70086-4 0  9999
2 22185  82.5899 296.9430 0007733 315.6008 212.7887 12.61606010560916

Track COSMOS 2214 in real time with AllMySat

Download on the App Store